This is the latest recevied weather packets stored in our database for station/object YU7IBS-1. If no packets are shown the sender has not sent any weather packets the latest 1 day(s).
| Time | Temp. | Humidity | Pressure | Rain* | Wind** | Luminosity | Snow |
|---|---|---|---|---|---|---|---|
| 1777988557 | 27.22° C | 31% | 995.3 hPa | 0 mm | 0 m/s | - | - |
| 1777987657 | 27.22° C | 32% | 995.7 hPa | 0 mm | 0 m/s | - | - |
| 1777986756 | 27.22° C | 33% | 995.6 hPa | 0 mm | 0 m/s | - | - |
| 1777985855 | 26.67° C | 33% | 996 hPa | 0 mm | 0 m/s | - | - |
| 1777984956 | 26.67° C | 32% | 996.3 hPa | 0 mm | 0 m/s | - | - |
| 1777984054 | 26.67° C | 33% | 996.7 hPa | 0 mm | 0 m/s | - | - |
| 1777983155 | 26.11° C | 33% | 996.3 hPa | 0 mm | 0 m/s | - | - |
| 1777982254 | 26.11° C | 33% | 996.7 hPa | 0 mm | 1.34 m/s, 0° | - | - |
| 1777981359 | 25.56° C | 34% | 996.3 hPa | 0 mm | 0.45 m/s, 0° | - | - |
| 1777980454 | 25.56° C | 33% | 996.8 hPa | 0 mm | 1.79 m/s, 0° | - | - |
| 1777979555 | 25.56° C | 31% | 997 hPa | 0 mm | 0.45 m/s, 0° | - | - |
| 1777978655 | 25° C | 31% | 997.4 hPa | 0 mm | 0 m/s | - | - |
| 1777977755 | 25° C | 31% | 997.5 hPa | 0 mm | 0 m/s | - | - |
| 1777976854 | 25° C | 29% | 997.5 hPa | 0 mm | 0 m/s | - | - |
| 1777975954 | 25° C | 31% | 997.5 hPa | 0 mm | 0.45 m/s, 0° | - | - |
| 1777975053 | 25° C | 29% | 997.5 hPa | 0 mm | 0 m/s | - | - |
| 1777974153 | 25° C | 31% | 997.6 hPa | 0 mm | 0 m/s | - | - |
| 1777973253 | 25° C | 32% | 998 hPa | 0 mm | 0 m/s | - | - |
| 1777968553 | 21.67° C | 36% | 998.5 hPa | 0 mm | 0 m/s | - | - |
| 1777967652 | 21.11° C | 38% | 998.5 hPa | 0 mm | 0 m/s | - | - |
| 1777966753 | 20° C | 39% | 998.5 hPa | 0 mm | 0 m/s | - | - |
| 1777965852 | 20° C | 43% | 998.5 hPa | 0 mm | 0 m/s | - | - |
| 1777964958 | 19.44° C | 43% | 998.5 hPa | 0 mm | 0 m/s | - | - |
| 1777964052 | 19.44° C | 46% | 998.5 hPa | 0 mm | 0 m/s | - | - |
| 1777963157 | 20° C | 40% | 998.5 hPa | 0 mm | 0 m/s | - | - |
* Rain latest hour (hover to see other rain measurements)
** Current wind speed in m/s (hover to see current wind gust speed)